TimeCST,TemperatureF,Dew PointF,Humidity,Sea Level PressureIn,VisibilityMPH,Wind Direction,Wind SpeedMPH,Gust SpeedMPH,PrecipitationIn,Events,Conditions,WindDirDegrees,DateUTC
12:15 AM,64.4,55.4,73,29.88,10.0,SW,5.8,-,N/A,,Overcast,220,2012-12-10 06:15:00
12:35 AM,64.4,55.4,73,29.87,10.0,SW,3.5,-,N/A,,Overcast,220,2012-12-10 06:35:00
12:55 AM,64.4,55.4,73,29.87,10.0,SSW,6.9,-,N/A,,Overcast,200,2012-12-10 06:55:00
1:15 AM,64.4,55.4,73,29.86,10.0,SSW,5.8,-,N/A,,Overcast,200,2012-12-10 07:15:00
1:35 AM,64.4,57.2,77,29.85,10.0,SSW,6.9,-,N/A,,Overcast,200,2012-12-10 07:35:00
1:55 AM,64.4,57.2,77,29.85,10.0,SSW,8.1,-,N/A,,Overcast,200,2012-12-10 07:55:00
2:15 AM,64.4,57.2,77,29.85,10.0,SSW,4.6,-,N/A,,Overcast,200,2012-12-10 08:15:00
2:55 AM,66.2,59.0,78,29.83,10.0,South,6.9,-,N/A,,Overcast,190,2012-12-10 08:55:00
3:15 AM,66.2,60.8,83,29.83,10.0,SSW,5.8,-,N/A,,Overcast,210,2012-12-10 09:15:00
3:35 AM,66.2,60.8,83,29.81,10.0,South,6.9,-,N/A,,Overcast,180,2012-12-10 09:35:00
3:55 AM,66.2,60.8,83,29.80,10.0,South,8.1,-,N/A,,Overcast,190,2012-12-10 09:55:00
4:15 AM,66.2,60.8,83,29.79,10.0,SSW,9.2,-,N/A,,Overcast,200,2012-12-10 10:15:00
4:35 AM,66.2,60.8,83,29.78,10.0,SSW,4.6,-,N/A,,Overcast,200,2012-12-10 10:35:00
4:55 AM,66.2,60.8,83,29.78,10.0,SSW,8.1,16.1,N/A,Thunderstorm,Overcast,200,2012-12-10 10:55:00
5:15 AM,64.4,60.8,88,29.78,10.0,SSW,5.8,-,0.01,,Overcast,200,2012-12-10 11:15:00
5:55 AM,62.6,59.0,88,29.80,10.0,SW,9.2,-,0.30,,Overcast,230,2012-12-10 11:55:00
6:15 AM,62.6,57.2,82,29.80,10.0,SSW,5.8,-,0.05,Thunderstorm,Overcast,200,2012-12-10 12:15:00
6:35 AM,60.8,57.2,88,29.82,9.0,SW,8.1,16.1,0.07,,Overcast,220,2012-12-10 12:35:00
7:15 AM,60.8,57.2,88,29.82,10.0,SW,4.6,-,0.01,,Mostly Cloudy,220,2012-12-10 13:15:00
7:35 AM,59.0,57.2,94,29.81,7.0,SW,3.5,-,0.03,,Mostly Cloudy,220,2012-12-10 13:35:00
7:55 AM,59.0,55.4,88,29.82,9.0,SSW,5.8,-,0.04,,Overcast,210,2012-12-10 13:55:00
8:16 AM,59.0,55.4,88,29.82,7.0,SSW,5.8,-,0.07,,Overcast,200,2012-12-10 14:16:00
8:35 AM,59.0,55.4,88,29.82,5.0,WSW,4.6,-,0.19,,Overcast,240,2012-12-10 14:35:00
8:55 AM,59.0,55.4,88,29.82,7.0,WSW,5.8,-,0.26,,Mostly Cloudy,240,2012-12-10 14:55:00
9:15 AM,59.0,55.4,88,29.81,5.0,Calm,Calm,-,0.11,,Mostly Cloudy,0,2012-12-10 15:15:00
9:35 AM,59.0,55.4,88,29.82,6.0,WSW,3.5,-,0.18,,Overcast,250,2012-12-10 15:35:00
9:55 AM,59.0,55.4,88,29.81,6.0,WSW,3.5,-,0.28,,Mostly Cloudy,240,2012-12-10 15:55:00
10:15 AM,59.0,57.2,94,29.81,8.0,Calm,Calm,-,0.07,,Overcast,0,2012-12-10 16:15:00
10:35 AM,59.0,57.2,94,29.80,7.0,South,3.5,-,0.11,,Overcast,180,2012-12-10 16:35:00
10:55 AM,60.8,57.2,88,29.79,10.0,Calm,Calm,-,0.13,,Overcast,0,2012-12-10 16:55:00
11:15 AM,60.8,57.2,88,29.78,10.0,SW,3.5,-,N/A,,Overcast,220,2012-12-10 17:15:00
11:35 AM,60.8,57.2,88,29.77,10.0,South,5.8,-,0.02,,Overcast,190,2012-12-10 17:35:00
11:55 AM,60.8,57.2,88,29.75,10.0,South,6.9,-,0.03,,Overcast,170,2012-12-10 17:55:00
12:15 PM,60.8,57.2,88,29.75,10.0,South,5.8,-,N/A,,Overcast,180,2012-12-10 18:15:00
12:35 PM,60.8,57.2,88,29.74,10.0,SSW,6.9,-,N/A,,Overcast,200,2012-12-10 18:35:00
12:55 PM,60.8,57.2,88,29.72,10.0,SSW,4.6,-,0.01,,Mostly Cloudy,210,2012-12-10 18:55:00
1:15 PM,60.8,57.2,88,29.73,10.0,SW,6.9,-,N/A,,Overcast,230,2012-12-10 19:15:00
1:35 PM,62.6,57.2,82,29.72,10.0,SSW,5.8,-,N/A,,Overcast,200,2012-12-10 19:35:00
1:55 PM,62.6,57.2,82,29.72,10.0,SW,5.8,-,N/A,,Overcast,220,2012-12-10 19:55:00
2:15 PM,62.6,57.2,82,29.71,10.0,SW,8.1,-,N/A,,Overcast,230,2012-12-10 20:15:00
2:35 PM,62.6,57.2,82,29.72,10.0,SW,6.9,-,N/A,,Overcast,220,2012-12-10 20:35:00
2:55 PM,62.6,59.0,88,29.72,10.0,SW,6.9,-,N/A,,Overcast,230,2012-12-10 20:55:00
3:15 PM,62.6,59.0,88,29.72,10.0,SW,5.8,-,N/A,,Mostly Cloudy,220,2012-12-10 21:15:00
3:35 PM,62.6,57.2,82,29.73,10.0,West,10.4,16.1,N/A,,Mostly Cloudy,280,2012-12-10 21:35:00
3:55 PM,57.2,53.6,88,29.75,10.0,WNW,11.5,-,N/A,,Mostly Cloudy,290,2012-12-10 21:55:00
4:15 PM,55.4,51.8,88,29.76,10.0,WNW,10.4,17.3,N/A,,Overcast,300,2012-12-10 22:15:00
4:35 PM,53.6,48.2,82,29.77,10.0,WNW,15.0,-,N/A,,Overcast,290,2012-12-10 22:35:00
4:55 PM,51.8,46.4,82,29.79,10.0,WNW,12.7,-,N/A,,Overcast,290,2012-12-10 22:55:00
5:15 PM,51.8,46.4,82,29.81,10.0,WNW,9.2,-,N/A,,Overcast,300,2012-12-10 23:15:00
5:35 PM,51.8,46.4,82,29.81,10.0,WNW,11.5,-,N/A,,Overcast,290,2012-12-10 23:35:00
5:55 PM,50.0,46.4,87,29.82,10.0,NW,12.7,17.3,N/A,,Overcast,320,2012-12-10 23:55:00
6:15 PM,48.2,44.6,87,29.84,10.0,NNW,10.4,16.1,N/A,,Overcast,330,2012-12-11 00:15:00
6:35 PM,48.2,44.6,87,29.85,10.0,NW,12.7,19.6,N/A,,Overcast,320,2012-12-11 00:35:00
6:55 PM,48.2,42.8,82,29.87,10.0,NW,8.1,-,N/A,,Overcast,320,2012-12-11 00:55:00
7:15 PM,46.4,41.0,81,29.87,10.0,NNW,6.9,-,N/A,,Overcast,330,2012-12-11 01:15:00
7:35 PM,46.4,41.0,81,29.88,10.0,NNW,11.5,-,N/A,,Overcast,330,2012-12-11 01:35:00
7:55 PM,46.4,41.0,81,29.89,10.0,NNW,11.5,19.6,N/A,,Overcast,330,2012-12-11 01:55:00
8:16 PM,46.4,41.0,81,29.90,10.0,NNW,5.8,-,N/A,,Overcast,340,2012-12-11 02:16:00
8:55 PM,46.4,41.0,81,29.92,10.0,NW,5.8,-,N/A,,Overcast,310,2012-12-11 02:55:00
9:15 PM,46.4,39.2,76,29.92,10.0,NW,6.9,-,N/A,,Overcast,310,2012-12-11 03:15:00
9:35 PM,46.4,39.2,76,29.93,10.0,WNW,8.1,-,N/A,,Overcast,300,2012-12-11 03:35:00
9:55 PM,44.6,37.4,76,29.94,10.0,NW,9.2,-,N/A,,Overcast,310,2012-12-11 03:55:00
10:15 PM,44.6,37.4,76,29.95,10.0,NW,6.9,-,N/A,,Overcast,310,2012-12-11 04:15:00
10:35 PM,42.8,35.6,76,29.95,10.0,NW,8.1,-,N/A,,Mostly Cloudy,320,2012-12-11 04:35:00
10:55 PM,41.0,35.6,81,29.96,10.0,NW,8.1,-,N/A,,Clear,310,2012-12-11 04:55:00
11:15 PM,39.2,33.8,81,29.96,10.0,WNW,5.8,-,N/A,,Clear,300,2012-12-11 05:15:00
11:35 PM,39.2,33.8,81,29.96,10.0,WNW,5.8,-,N/A,,Clear,300,2012-12-11 05:35:00
11:55 PM,39.2,33.8,81,29.96,10.0,WNW,4.6,-,N/A,,Clear,300,2012-12-11 05:55:00